COSMOS 2459 (731)

Last updated on Aug. 14, 2020, 5:31 a.m. UTC

1 36400U 10007A   20226.42732847 -.00000028  00000-0  10000-3 0  9995
2 36400  65.8969  25.9891 0024041 355.2721  37.3740  2.13105120 81354
UTC
Height (km)
Latitude
Longitude
Inclination
Orbital Period
UTC large
Height (km)
Speed (km/s)
/
Latitude / Longitude
Inclination (degrees)
Orbital Period (minutes)
Azimuth
Elevation
Range (km)
Doppler Factor
iOS Compass Heading
iOS Angle

Next 30 passes for location: Hong Kong

Rise time Rise Azimuth (degrees) Set time Set Azimuth (degrees) Duration Max altitude (degrees)

No matching passes for this satellites